[[{"header":{"parameterUnit":"m.s-1","parameterCategory":1,"la1":30.2991,"la2":30.254,"lo1":-89.0895,"lo2":-89.0444,"dy":0.0017,"dx":0.0017,"nx":28,"ny":28,"refTime":"2024-07-06T21:00:00:Z","depth":0,"parameterNumber":2,"parameterNumberName":"U-component_of_WINDS"},"data":[0,0,0,0,0,0,0,0,0,0,0,0,0,0,0,0,0,0,0,0,0,0,0,0,0,0,0,0,0,0,0,0,0,0,0,0,0,0,0,0,0,0,0,0,0,0,0,0,0,0,0,0,0,0,0,0,0,0,1.1531,1.1531,0,1.1594,1.1594,1.1595,1.1612,1.1611,1.1611,1.161,1.1674,1.1676,1.1679,0,0,0,0,0,0,0,0,0,0,0,0,0,1.1422,1.1424,1.1531,1.1531,1.1532,1.1594,1.1595,1.1595,1.1612,1.1611,1.1611,1.161,1.1674,1.1676,1.1679,0,0,0,0,0,0,0,0,0,0,0,0,0,1.1475,1.1424,1.153,1.1548,1.155,1.1593,1.1595,1.1596,1.1612,1.1611,1.1611,1.161,1.1673,1.1676,1.1679,1.171,0,0,1.1689,1.169,0,0,0,0,0,0,0,0,1.1472,1.1479,1.1544,1.1547,1.1549,1.1594,1.158,1.1634,1.1612,1.1588,1.161,1.161,1.1648,1.1653,1.1666,1.1713,1.1716,1.1689,1.1691,1.1692,1.1693,0,0,0,0,0,0,0,1.1468,1.1477,1.1556,1.1545,1.1548,1.1551,1.1558,1.159,1.1621,1.159,1.1592,1.1599,1.1649,1.1663,1.1668,1.1717,1.1689,1.1691,1.1693,1.1695,1.1789,1.1789,0,0,0,0,0,0,1.1462,1.1473,1.1554,1.1557,1.1508,1.1554,1.1562,1.158,1.162,1.1626,1.1599,1.1599,1.1658,1.1664,1.167,1.1707,1.1692,1.1695,1.1697,1.1788,1.1789,1.1789,0,0,0,0,0,0,1.146,1.1469,1.1551,1.1516,1.1527,1.1556,1.1577,1.1582,1.1596,1.1627,1.1633,1.1608,1.1658,1.1666,1.1699,1.171,1.1696,1.1699,1.1787,1.1788,1.1789,1.1782,0,0,0,0,0,0,1.1456,1.1468,1.1481,1.1516,1.1528,1.158,1.1578,1.1584,1.1601,1.1602,1.1637,1.1642,1.1658,1.1695,1.1702,1.1714,1.1702,1.1786,1.1788,1.1789,1.1782,1.1783,1.1784,0,0,0,0,0,1.1452,1.1477,1.1481,1.1491,1.1545,1.158,1.1587,1.1606,1.1602,1.1614,1.1634,1.1641,1.1707,1.1698,1.1707,1.1719,1.1786,1.1787,1.1789,1.1781,1.1783,1.1784,0,0,0,0,0,0,1.1443,1.1482,1.1487,1.1524,1.1549,1.1583,1.16,1.1607,1.1633,1.1633,1.1654,1.1661,1.1693,1.171,1.1698,1.175,1.1746,1.175,1.1738,1.174,1.1741,1.1736,1.1704,0,0,0,0,0,1.1445,1.1471,1.1503,1.1532,1.1544,1.157,1.1586,1.1597,1.1624,1.1634,1.1657,1.1681,1.1708,1.1725,1.1751,1.1784,1.1791,1.1797,1.1798,1.1799,1.1801,1.1818,1.1821,1.1794,1.1794,1.1794,0,0,1.1449,1.1474,1.1489,1.1531,1.1552,1.1577,1.1578,1.1606,1.1624,1.1638,1.1671,1.1688,1.1717,1.175,1.1765,1.1765,1.181,1.1801,1.1801,1.1803,1.182,1.1822,1.1825,1.1795,1.1795,1.1795,0,0,1.147,1.1492,1.1518,1.1538,1.1569,1.1585,1.1591,1.1624,1.1635,1.1668,1.1678,1.17,1.1746,1.1765,1.1781,1.1807,1.1814,1.1815,1.1821,1.1837,1.1839,1.1841,1.1849,1.1851,1.1817,1.1817,1.1817,0,1.1472,1.1511,1.153,1.1556,1.1574,1.1587,1.1612,1.163,1.1668,1.1679,1.1678,1.1733,1.1754,1.179,1.1796,1.1809,1.1816,1.1811,1.1837,1.1839,1.1841,1.1849,1.1852,1.1817,1.1817,1.1817,1.1817,0,1.1511,1.1538,1.1555,1.159,1.1609,1.1635,1.1656,1.1673,1.1682,1.1698,1.173,1.1755,1.1786,1.1795,1.1805,1.1833,1.1831,1.1833,1.183,1.1843,1.1851,1.1854,1.1817,1.1817,1.1817,1.1817,0,0,1.1529,1.1573,1.1578,1.1594,1.1627,1.1648,1.1673,1.1702,1.1716,1.1741,1.1761,1.1798,1.18,1.1817,1.1829,1.1844,1.186,1.1844,1.1845,1.1845,1.189,1.1888,1.1891,1.1865,1.1865,1.1866,1.1887,0,1.1553,1.1599,1.1616,1.1653,1.1677,1.1689,1.171,1.1733,1.1748,1.177,1.1786,1.1811,1.1812,1.1822,1.1837,1.1855,1.1869,1.1854,1.1883,1.1884,1.1875,1.1895,1.1894,1.1913,1.1891,1.1891,1.1891,0,1.1588,1.1613,1.1652,1.1681,1.1692,1.1711,1.1738,1.1759,1.1784,1.1793,1.1812,1.1823,1.1848,1.1843,1.1878,1.1867,1.1879,1.189,1.1891,1.1894,1.1888,1.1898,1.192,1.1922,1.1896,1.1896,1.1896,0,1.1595,1.1638,1.1667,1.168,1.1714,1.1727,1.1742,1.1766,1.1782,1.1806,1.1816,1.1842,1.1856,1.1875,1.1892,1.1887,1.1924,1.1921,1.1932,1.1932,1.194,1.1939,1.1962,1.1949,1.1949,1.1949,1.1949,0,1.1621,1.1644,1.167,1.1688,1.1714,1.1732,1.1757,1.1772,1.1793,1.1813,1.1825,1.1844,1.1865,1.1885,1.1898,1.1924,1.1931,1.1938,1.1941,1.1937,1.1936,1.1946,1.1944,1.1949,1.1949,1.1949,1.1949,0,1.1633,1.1652,1.1684,1.1713,1.1721,1.1739,1.1764,1.178,1.1795,1.182,1.1827,1.185,1.1875,1.1893,1.1926,1.1934,1.1961,1.1965,1.1953,1.1954,1.1964,1.1962,1.1994,1.1999,1.1982,1.1982,1.1983,0,1.1648,1.1666,1.1697,1.1711,1.1725,1.1748,1.1764,1.1782,1.1798,1.1826,1.1839,1.1864,1.1886,1.1924,1.1944,1.1968,1.1972,1.1981,1.1976,1.197,1.1971,1.1969,1.197,1.1982,1.1982,1.1982,1.1982,0,1.1671,1.1678,1.1701,1.1726,1.1745,1.1765,1.1786,1.1797,1.1818,1.1835,1.186,1.1877,1.1909,1.1934,1.1959,1.1974,1.1981,1.1983,1.1987,1.1983,1.1974,1.1978,1.1954,1.1983,1.1983,1.1983,1.1983,1.1983,1.1684,1.17,1.1723,1.1748,1.1765,1.1784,1.18,1.1817,1.1838,1.1866,1.1874,1.19,1.1922,1.1958,1.1972,1.1992,1.1992,1.1997,1.1999,1.2,1.1999,1.1971,1.1997,1.1997,1.1997,1.1997,1.1997,0,1.1706,1.1722,1.1744,1.1772,1.1791,1.1796,1.1818,1.1833,1.1856,1.1876,1.1896,1.1924,1.1948,1.1968,1.1992,1.2004,1.2008,1.201,1.2009,1.2012,1.1998,1.1992,1.2006,1.2006,1.2006,1.2006,1.2006,1.2006,1.172,1.1747,1.1757,1.1792,1.1807,1.1832,1.1844,1.1861,1.1877,1.1908,1.1927,1.1941,1.196,1.1986,1.2007,1.2012,1.202,1.2021,1.2027,1.2014,1.2013,1.2012,1.2006,1.2023,1.2023,1.2039,1.2039,1.2039]},{"header":{"parameterUnit":"m.s-1","parameterCategory":1,"la1":30.2991,"la2":30.254,"lo1":-89.0895,"lo2":-89.0444,"dy":0.0017,"dx":0.0017,"nx":28,"ny":28,"refTime":"2024-07-06T21:00:00:Z","depth":0,"parameterNumber":3,"parameterNumberName":"V-component_of_WINDS"},"data":[0,0,0,0,0,0,0,0,0,0,0,0,0,0,0,0,0,0,0,0,0,0,0,0,0,0,0,0,0,0,0,0,0,0,0,0,0,0,0,0,0,0,0,0,0,0,0,0,0,0,0,0,0,0,0,0,0,0,4.753,4.7531,0,4.7611,4.7612,4.7613,4.7564,4.7562,4.7559,4.7557,4.7635,4.7639,4.7643,0,0,0,0,0,0,0,0,0,0,0,0,0,4.7324,4.7328,4.753,4.7531,4.7532,4.7611,4.7612,4.7613,4.7565,4.7562,4.7559,4.7556,4.7633,4.7638,4.7643,0,0,0,0,0,0,0,0,0,0,0,0,0,4.741,4.733,4.7529,4.7517,4.7517,4.7611,4.7612,4.7613,4.7565,4.7562,4.7558,4.7555,4.7632,4.7638,4.7644,4.7753,0,0,4.7663,4.7666,0,0,0,0,0,0,0,0,4.7405,4.7418,4.7518,4.7518,4.7518,4.7574,4.7568,4.766,4.7566,4.7547,4.7557,4.7553,4.7617,4.7624,4.7647,4.7756,4.776,4.7664,4.7668,4.767,4.7672,0,0,0,0,0,0,0,4.7399,4.7414,4.7562,4.7519,4.7519,4.7505,4.7513,4.7585,4.76,4.7548,4.7545,4.7555,4.7616,4.7641,4.7648,4.7761,4.7664,4.7669,4.7673,4.7676,4.7961,4.7964,0,0,0,0,0,0,4.7395,4.7409,4.7559,4.7564,4.7452,4.7511,4.7521,4.7559,4.7599,4.7602,4.7558,4.7553,4.7632,4.7641,4.7651,4.7779,4.767,4.7676,4.768,4.7957,4.7961,4.7965,0,0,0,0,0,0,4.7391,4.7409,4.7556,4.7486,4.7503,4.7519,4.7562,4.7563,4.7588,4.7607,4.7609,4.7581,4.7629,4.7642,4.7728,4.7781,4.7679,4.7685,4.7952,4.7958,4.7963,4.8038,0,0,0,0,0,0,4.7386,4.7408,4.7452,4.7487,4.7507,4.7634,4.7566,4.7567,4.7599,4.7593,4.7629,4.7632,4.7628,4.7718,4.7734,4.7788,4.769,4.7948,4.7955,4.7962,4.8031,4.8046,4.8058,0,0,0,0,0,4.7378,4.7469,4.7454,4.7472,4.7563,4.7637,4.7648,4.7644,4.7604,4.7646,4.7658,4.763,4.7773,4.7728,4.7745,4.7802,4.7944,4.7953,4.7961,4.8025,4.8043,4.8058,0,0,0,0,0,0,4.7437,4.7473,4.7457,4.7562,4.7597,4.7629,4.7682,4.7663,4.7708,4.77,4.769,4.7699,4.7788,4.7803,4.7752,4.7908,4.7852,4.7864,4.7895,4.7912,4.7925,4.7919,4.7695,0,0,0,0,0,4.7462,4.7522,4.755,4.7639,4.7658,4.7667,4.7699,4.7693,4.7728,4.7741,4.776,4.7793,4.7845,4.7879,4.7928,4.8033,4.8038,4.808,4.8094,4.8105,4.8115,4.817,4.8188,4.7993,4.7993,4.7993,0,0,4.7515,4.7542,4.758,4.7652,4.7678,4.7737,4.768,4.7746,4.7789,4.7751,4.7833,4.7847,4.7883,4.7979,4.8021,4.7994,4.817,4.8116,4.8124,4.8129,4.818,4.8199,4.8215,4.7999,4.7998,4.7997,0,0,4.7641,4.7669,4.7746,4.7773,4.7814,4.7819,4.7838,4.7872,4.7881,4.7964,4.7936,4.7985,4.8076,4.8102,4.8127,4.8261,4.8236,4.8277,4.8348,4.8401,4.8417,4.843,4.8477,4.8493,4.8288,4.8288,4.8288,0,4.7701,4.7792,4.7787,4.7855,4.7886,4.7856,4.7932,4.7958,4.8012,4.8033,4.8002,4.8114,4.8136,4.8236,4.8268,4.829,4.8309,4.8273,4.8415,4.8429,4.8441,4.8485,4.8503,4.8293,4.8292,4.8292,4.8291,0,4.7862,4.7926,4.7982,4.8037,4.8074,4.8146,4.815,4.8187,4.8177,4.8185,4.8268,4.8293,4.8346,4.8369,4.8359,4.8467,4.8449,4.8417,4.8361,4.8465,4.8506,4.8522,4.8299,4.8298,4.8296,4.8295,0,0,4.8029,4.8079,4.81,4.8123,4.8165,4.8213,4.8282,4.8335,4.8367,4.8404,4.846,4.8537,4.8507,4.8536,4.8528,4.8575,4.8677,4.8537,4.8537,4.8561,4.8795,4.8818,4.8838,4.8661,4.8664,4.8667,4.8792,0,4.8156,4.828,4.8276,4.8389,4.8446,4.8417,4.8477,4.8507,4.8516,4.8563,4.8572,4.8626,4.8584,4.86,4.8645,4.8655,4.8724,4.8646,4.8711,4.8713,4.8702,4.886,4.8885,4.9002,4.8808,4.8811,4.8813,0,4.8323,4.8367,4.8487,4.8519,4.8542,4.8597,4.8644,4.869,4.8723,4.8726,4.8758,4.8742,4.8809,4.8751,4.8842,4.8789,4.8815,4.8824,4.8828,4.8833,4.8769,4.8868,4.9039,4.9056,4.8838,4.8836,4.8834,0,4.843,4.852,4.8602,4.8624,4.8663,4.8702,4.8719,4.8749,4.8781,4.8821,4.8841,4.8888,4.8914,4.895,4.8946,4.8905,4.9038,4.898,4.904,4.904,4.9069,4.9067,4.9245,4.9087,4.9087,4.9086,4.9086,0,4.8573,4.8647,4.8651,4.8702,4.8783,4.8777,4.8856,4.887,4.8896,4.8947,4.8924,4.8971,4.8964,4.9011,4.9009,4.9083,4.9095,4.9097,4.9095,4.9099,4.9099,4.9115,4.9107,4.9091,4.909,4.9089,4.9088,0,4.8707,4.8713,4.8801,4.8832,4.8841,4.8899,4.8923,4.897,4.8976,4.9041,4.9055,4.9064,4.9118,4.9118,4.918,4.9178,4.9268,4.9258,4.9258,4.9256,4.9315,4.9309,4.951,4.9535,4.9361,4.9363,4.9364,0,4.8797,4.8854,4.889,4.8923,4.8944,4.8998,4.903,4.9025,4.9059,4.91,4.9141,4.9193,4.9235,4.9322,4.9333,4.9379,4.9368,4.9435,4.9375,4.9376,4.9368,4.9364,4.9369,4.9447,4.9449,4.9451,4.9452,0,4.8957,4.8957,4.9005,4.9055,4.9094,4.9132,4.9167,4.9195,4.9194,4.9233,4.9289,4.9321,4.9384,4.9435,4.9479,4.9494,4.9472,4.9471,4.9487,4.9491,4.9488,4.9489,4.9289,4.9466,4.9465,4.9464,4.9463,4.9462,4.9071,4.9119,4.9152,4.9206,4.9232,4.9265,4.931,4.9322,4.9369,4.9421,4.9414,4.9476,4.9505,4.9562,4.9582,4.9628,4.9604,4.9628,4.9633,4.9639,4.9645,4.9481,4.9636,4.9636,4.9635,4.9635,4.9635,0,4.9228,4.9247,4.9297,4.9348,4.939,4.9367,4.9404,4.944,4.9495,4.9525,4.9566,4.9629,4.9678,4.9692,4.9739,4.9773,4.9764,4.9786,4.9783,4.9786,4.9664,4.9645,4.9792,4.9792,4.9792,4.9792,4.9792,4.9792,4.9315,4.9394,4.9398,4.9489,4.9507,4.9569,4.9591,4.9621,4.9644,4.9716,4.9758,4.9767,4.979,4.9838,4.9881,4.9883,4.9901,4.9926,4.9925,4.9811,4.9795,4.978,4.9762,4.9931,4.9931,5.0042,5.0044,5.0044]}]]